Location: Godiavel Galaoual
(15.2485°N, 12.6604°W)
Time: 14:11:28
(UTC+00:00)

Cosmos 1898 Rocket - Pass Details

Date: 27 February 2020
Orbit: 754 x 783 km, 74.0° (Epoch: 29 March)

Event Time Altitude Azimuth Distance (km) Brightness Sun altitude
Rises 20:47:08 0° 342° (NNW) 3,204 6.9 -27.1°
Reaches altitude 10° 20:49:30 10° 340° (NNW) 2,281 6.1 -27.7°
Maximum altitude 20:54:38 69° 258° (WSW) 812 3.7 -28.9°
Enters shadow 20:54:45 69° 248° (WSW) 813 3.6 -28.9°
